Stations météo

réclame
Mon MeteoGroup
Le Luc, France (7675): Température de l'air & dewpoint: 20.08.2019 02:00:00 - 26.08.2019 02:00:00 (CEST)Le Luc, France (7675): Température de l'air 5cm: 20.08.2019 02:00:00 - 26.08.2019 02:00:00 (CEST)Le Luc, France (7675): Vitesse du vent & gusts: 20.08.2019 02:00:00 - 26.08.2019 02:00:00 (CEST)Le Luc, France (7675): Direction du vent: 20.08.2019 02:00:00 - 26.08.2019 02:00:00 (CEST)Le Luc, France (7675): reduced air pressure: 20.08.2019 02:00:00 - 26.08.2019 02:00:00 (CEST)Le Luc, France (7675): visibility: 20.08.2019 02:00:00 - 26.08.2019 02:00:00 (CEST)Le Luc, France (7675): Ensoleillement: 20.08.2019 02:00:00 - 26.08.2019 02:00:00 (CEST)Le Luc, France (7675): Quantités de précipitations: 20.08.2019 02:00:00 - 26.08.2019 02:00:00 (CEST)
Date & Time tt [°C] td [°C] tt 5cm [°C] ff [km/h] ff [knt] fx [km/h] fx [knt] dd ppp [hPa] vv [km] sd [min] rr [mm]
26.08.2019 02:00:00 20,2 14,1 18,5 0 0 4 2 N 1017,7 20 0 0,0
26.08.2019 01:00:00 21,5 15,1 19,7 2 1 4 2 WNW 1017,7 20 0 0,0
26.08.2019 00:00:00 22,7 14,5 21,0 0 0 7 4 N 1017,6 20 0 0,0
25.08.2019 23:00:00 24,9 15,8 23,3 3 2 5 3 W 1017,4 20 0 0,0
25.08.2019 22:00:00 26,1 15,8 24,9 4 2 8 4 WNW 1017,1 20 0 0,0
25.08.2019 21:00:00 28,0 15,3 25,8 3 2 10 6 NE 1016,5 20 0 0,0
25.08.2019 20:00:00 30,0 14,9 29,8 10 5 18 10 ESE 1015,8 20 41 0,0
25.08.2019 19:00:00 31,4 14,5 33,6 14 8 23 13 ESE 1015,5 20 60 0,0
25.08.2019 18:00:00 32,4 14,1 35,9 15 8 26 14 ESE 1015,4 20 60 0,0
25.08.2019 17:00:00 32,7 15,7 37,6 14 8 31 17 SE 1015,3 20 60 0,0
25.08.2019 16:00:00 33,2 15,7 38,7 15 8 32 17 ESE 1015,3 20 60 0,0
25.08.2019 15:00:00 32,7 15,2 38,5 16 9 34 18 SE 1015,7 19 60 0,0
25.08.2019 14:00:00 32,7 14,8 38,4 18 10 32 17 ESE 1016,3 20 60 0,0
25.08.2019 13:00:00 32,2 15,7 38,4 8 4 23 13 SSE 1016,6 20 60 0,0
25.08.2019 12:00:00 31,1 15,9 37,6 5 3 15 8 NNW 1017,1 20 60 0,0
25.08.2019 11:00:00 28,5 16,1 33,5 3 1 8 4 SW 1017,8 20 60 0,0
25.08.2019 10:00:00 26,0 16,0 29,8 2 1 6 3 WNW 1017,9 20 60 0,0
25.08.2019 09:00:00 23,1 15,9 23,5 0 0 4 2 N 1017,9 20 60 0,0
25.08.2019 08:00:00 19,8 15,4 16,8 0 0 3 2 N 1017,7 20 43 0,0
25.08.2019 07:00:00 17,7 14,4 16,4 0 0 6 3 N 1017,6 20 0 0,0
25.08.2019 06:00:00 18,9 15,0 17,3 3 2 10 5 WNW 1017,3 20 0 0,0
25.08.2019 05:00:00 19,0 15,1 17,4 0 0 15 8 N 1017,4 20 0 0,0
25.08.2019 04:00:00 21,1 15,9 19,1 9 5 14 8 SW 1017,4 20 0 0,0
25.08.2019 03:00:00 20,5 15,7 19,4 2 1 6 3 SW 1017,7 20 0 0,0
25.08.2019 02:00:00 20,8 15,6 19,8 0 0 4 2 N 1018,2 20 0 0,0
25.08.2019 01:00:00 21,4 15,5 19,6 0 0 5 3 N 1018,3 20 0 0,0
25.08.2019 00:00:00 22,4 16,2 21,2 6 3 10 5 W 1018,1 20 0 0,0
24.08.2019 23:00:00 23,1 15,7 21,4 3 1 5 3 W 1017,9 20 0 0,0
24.08.2019 22:00:00 24,6 15,5 22,5 3 1 7 4 NNW 1017,7 20 0 0,0
24.08.2019 21:00:00 25,9 15,0 23,8 6 3 8 4 NNE 1017,0 20 0 0,0
24.08.2019 20:00:00 28,5 15,4 27,7 3 2 12 6 SSW 1016,7 20 8 0,0
24.08.2019 19:00:00 29,2 15,7 29,3 4 2 10 5 SW 1016,6 20 3 0,0
24.08.2019 18:00:00 29,3 16,1 29,9 7 4 24 13 WSW 1017,0 20 0 0,0
24.08.2019 17:00:00 30,4 15,7 29,6 9 5 28 15 S 1016,8 20 0 0,0
24.08.2019 16:00:00 30,6 15,1 32,1 14 8 31 17 SSE 1017,0 20 3 0,0
24.08.2019 15:00:00 31,6 14,7 34,1 8 4 20 11 S 1017,0 20 9 0,0
24.08.2019 14:00:00 33,0 14,6 37,7 6 4 16 8 S 1017,2 20 54 0,0
24.08.2019 13:00:00 31,9 14,5 38,8 9 5 24 13 SW 1017,8 20 60 0,0
24.08.2019 12:00:00 30,6 15,5 37,0 6 3 16 9 SW 1018,4 20 60 0,0
24.08.2019 11:00:00 28,7 17,6 35,2 3 2 8 5 NNE 1018,9 20 60 0,0
24.08.2019 10:00:00 26,7 18,0 30,4 2 1 7 4 NNW 1019,1 20 60 0,0
24.08.2019 09:00:00 24,0 18,4 22,8 0 0 5 3 N 1019,1 20 60 0,0
24.08.2019 08:00:00 19,9 17,1 17,9 3 2 7 4 E 1019,2 19 49 0,0
24.08.2019 07:00:00 18,7 16,7 17,4 4 2 9 5 W 1019,1 18 0 0,0
24.08.2019 06:00:00 19,1 16,7 17,9 3 2 5 3 NE 1018,9 20 0 0,0
24.08.2019 05:00:00 19,9 16,9 18,7 2 1 6 3 NW 1019,0 20 0 0,0
24.08.2019 04:00:00 21,3 17,9 20,3 3 2 9 5 S 1019,1 20 0 0,0
24.08.2019 03:00:00 22,3 18,1 21,8 0 0 8 4 N 1019,2 20 0 0,0
24.08.2019 02:00:00 22,5 17,8 21,7 5 3 8 4 W 1019,3 20 0 0,0
24.08.2019 01:00:00 22,2 18,0 21,2 0 0 8 4 N 1019,5 20 0 0,0
24.08.2019 00:00:00 22,5 18,3 21,1 5 3 10 6 E 1019,6 20 0 0,0
23.08.2019 23:00:00 23,3 18,0 22,5 8 4 10 5 E 1019,6 20 0 0,0
23.08.2019 22:00:00 24,5 17,7 23,0 0 0 7 4 N 1019,5 20 0 0,0
23.08.2019 21:00:00 25,9 17,5 24,5 3 1 14 8 E 1019,0 20 0 0,0
23.08.2019 20:00:00 27,0 18,0 26,9 14 7 19 10 ESE 1018,7 20 10 0,0
23.08.2019 19:00:00 28,2 17,1 28,8 8 4 18 10 SSE 1018,4 20 32 0,0
23.08.2019 18:00:00 27,9 18,0 28,7 12 6 25 14 SE 1018,6 20 2 0,0
23.08.2019 17:00:00 29,2 17,4 30,5 16 9 29 16 SE 1018,4 20 4 0,0
23.08.2019 16:00:00 30,2 17,6 32,7 19 11 35 19 E 1018,2 20 45 0,0
23.08.2019 15:00:00 30,8 17,8 36,0 23 12 35 19 ESE 1018,3 20 60 0,0
23.08.2019 14:00:00 31,2 17,9 36,0 21 11 38 20 ESE 1018,4 20 60 0,0
23.08.2019 13:00:00 31,3 16,9 35,9 25 14 41 22 ESE 1018,6 20 60 0,0
23.08.2019 12:00:00 31,6 14,7 36,7 9 5 16 9 ENE 1019,1 20 60 0,0
23.08.2019 11:00:00 27,7 13,2 32,6 4 2 16 9 SE 1019,8 20 60 0,0
23.08.2019 10:00:00 24,3 14,1 27,6 2 1 6 3 W 1019,5 20 60 0,0
23.08.2019 09:00:00 21,8 14,2 21,3 2 1 4 2 ENE 1019,4 20 60 0,0
23.08.2019 08:00:00 17,1 12,8 15,1 0 0 7 4 N 1019,8 20 40 0,0
23.08.2019 07:00:00 15,6 12,9 14,3 4 2 6 3 NW 1019,7 20 0 0,0
23.08.2019 06:00:00 15,5 12,4 14,6 4 2 8 4 SE 1019,4 20 0 0,0
23.08.2019 05:00:00 16,8 13,1 14,9 4 2 5 3 W 1019,2 20 0 0,0
23.08.2019 04:00:00 17,2 13,3 15,5 2 1 6 3 WNW 1019,5 20 0 0,0
23.08.2019 03:00:00 18,7 14,0 17,1 2 1 8 5 SE 1019,6 20 0 0,0
23.08.2019 02:00:00 19,7 13,8 17,8 0 0 13 7 N 1019,5 20 0 0,0
23.08.2019 01:00:00 21,0 14,6 19,9 8 4 12 6 WSW 1019,7 20 0 0,0
23.08.2019 00:00:00 22,1 14,7 20,8 8 4 13 7 WSW 1019,6 20 0 0,0
22.08.2019 23:00:00 22,0 14,6 20,9 8 4 14 8 WSW 1019,4 20 0 0,0
22.08.2019 22:00:00 22,1 15,0 21,4 8 4 24 13 SSW 1019,6 20 0 0,0
22.08.2019 21:00:00 24,4 14,2 23,8 16 9 46 25 W 1019,6 20 0 0,0
22.08.2019 20:00:00 27,5 17,1 27,1 15 8 34 19 WSW 1018,9 20 0 0,0
22.08.2019 19:00:00 29,5 17,7 29,9 13 7 18 10 SE 1018,2 20 0 0,0
22.08.2019 18:00:00 30,3 16,7 32,5 8 4 21 11 E 1017,7 20 6 0,0
22.08.2019 17:00:00 29,9 18,7 32,3 14 7 29 15 ESE 1018,2 20 3 0,0
22.08.2019 16:00:00 30,7 18,4 33,9 19 11 39 21 SE 1018,0 20 55 0,0
22.08.2019 15:00:00 31,1 17,4 33,5 19 10 35 19 E 1018,1 20 20 0,0
22.08.2019 14:00:00 30,7 17,0 34,3 22 12 34 18 ESE 1018,6 20 39 0,0
22.08.2019 13:00:00 30,7 17,4 33,1 17 9 25 14 ESE 1018,8 20 21 0,0
22.08.2019 12:00:00 28,2 16,8 32,2 4 2 10 5 NE 1019,0 20 15 0,0
22.08.2019 11:00:00 26,5 17,3 27,4 - - - - - 1019,2 20 15 0,0
22.08.2019 10:00:00 23,0 16,8 21,1 9 5 14 8 WSW 1018,9 20 0 0,0
22.08.2019 09:00:00 20,0 16,4 20,1 6 3 9 5 ENE 1018,0 20 0 0,0
22.08.2019 08:00:00 18,6 15,8 17,9 0 0 4 2 N 1018,5 20 8 0,0
22.08.2019 07:00:00 17,7 15,1 16,7 0 0 4 2 N 1018,4 20 0 0,0
22.08.2019 06:00:00 17,3 15,1 16,3 2 1 8 4 NW 1017,9 20 0 0,0
22.08.2019 05:00:00 18,2 16,2 16,4 5 3 9 5 WSW 1017,9 20 0 0,0
22.08.2019 04:00:00 18,2 15,4 16,9 0 0 7 4 N 1017,8 20 0 0,0
22.08.2019 03:00:00 19,0 15,7 17,3 2 1 4 2 WSW 1017,8 20 0 0,0
22.08.2019 02:00:00 19,4 16,1 17,7 0 0 5 3 N 1018,0 20 0 0,0
22.08.2019 01:00:00 21,0 16,6 19,1 0 0 5 3 N 1018,1 20 0 0,0
22.08.2019 00:00:00 22,1 17,0 20,4 0 0 6 3 N 1017,9 20 0 0,0
21.08.2019 23:00:00 23,3 19,0 22,4 4 2 9 5 ESE 1017,8 20 0 0,0
21.08.2019 22:00:00 24,2 17,4 22,9 3 1 7 4 N 1017,7 20 0 0,0
21.08.2019 21:00:00 25,7 17,6 24,4 4 2 15 8 E 1017,3 20 6 0,0
21.08.2019 20:00:00 27,7 17,5 27,9 13 7 21 11 SE 1016,4 20 48 0,0
21.08.2019 19:00:00 29,0 14,8 30,5 16 9 26 14 SE 1016,1 20 29 0,0
21.08.2019 18:00:00 30,0 15,3 34,1 17 9 29 15 E 1016,3 20 60 0,0
21.08.2019 17:00:00 30,6 15,5 34,8 19 11 32 17 ESE 1016,7 20 60 0,0
21.08.2019 16:00:00 30,7 15,5 35,5 22 12 35 19 E 1016,9 20 60 0,0
21.08.2019 15:00:00 30,6 15,1 33,0 25 14 40 22 E 1017,1 20 60 0,0
21.08.2019 14:00:00 29,9 17,0 31,2 23 12 44 24 E 1017,0 20 42 0,0
21.08.2019 13:00:00 29,0 18,1 30,4 24 13 38 21 E 1017,1 20 29 0,0
21.08.2019 12:00:00 28,3 18,7 30,8 8 5 21 12 E 1017,5 20 42 0,0
21.08.2019 11:00:00 26,4 18,0 28,3 8 5 21 12 ENE 1017,9 20 50 0,0
21.08.2019 10:00:00 23,1 15,2 23,9 2 1 6 3 E 1018,0 20 8 0,0
21.08.2019 09:00:00 20,8 14,2 19,9 0 0 4 2 N 1018,2 20 3 0,0
21.08.2019 08:00:00 18,6 14,1 17,0 0 0 3 2 N 1018,1 20 0 0,0
21.08.2019 07:00:00 17,0 13,5 15,2 2 1 5 3 WNW 1017,8 20 0 0,0
21.08.2019 06:00:00 17,3 13,4 15,5 0 0 3 2 N 1017,3 20 0 0,0
21.08.2019 05:00:00 18,0 13,9 16,2 0 0 5 3 N 1017,2 20 0 0,0
21.08.2019 04:00:00 19,2 14,0 18,0 4 2 9 5 NW 1017,0 20 0 0,0
21.08.2019 03:00:00 20,2 14,1 19,3 5 3 12 7 SW 1017,0 20 0 0,0
21.08.2019 02:00:00 20,6 14,3 19,8 7 4 15 8 SW 1017,0 20 0 0,0
21.08.2019 01:00:00 22,3 14,4 20,8 9 5 15 8 W 1017,1 20 0 0,0
21.08.2019 00:00:00 23,4 14,7 22,1 10 5 14 8 W 1017,2 20 0 0,0
20.08.2019 23:00:00 23,7 14,7 22,7 7 4 24 13 SW 1017,2 20 0 0,0
20.08.2019 22:00:00 25,1 14,8 24,5 13 7 26 14 W 1017,0 20 0 0,0
20.08.2019 21:00:00 27,3 14,7 26,2 9 5 18 10 W 1016,4 20 0 0,0
20.08.2019 20:00:00 28,0 15,6 28,0 11 6 22 12 WNW 1016,1 20 0 0,0
20.08.2019 19:00:00 28,2 18,6 29,3 11 6 34 18 NNE 1016,1 20 6 0,0
20.08.2019 18:00:00 29,7 18,8 31,7 13 7 40 21 NNE 1016,2 20 35 0,0
20.08.2019 17:00:00 31,6 20,2 32,9 14 8 77 42 WSW 1015,7 20 41 0,0
20.08.2019 16:00:00 30,7 20,6 33,4 22 12 31 17 ESE 1015,8 20 42 0,0
20.08.2019 15:00:00 30,4 20,0 32,9 19 10 29 16 SE 1016,1 20 14 0,0
20.08.2019 14:00:00 31,8 19,8 34,5 13 7 27 15 ESE 1016,1 20 35 0,0
20.08.2019 13:00:00 30,9 18,3 37,4 8 4 18 10 N 1016,3 20 55 0,0
20.08.2019 12:00:00 29,9 18,7 35,2 8 5 18 10 E 1016,8 20 53 0,0
20.08.2019 11:00:00 27,9 19,9 32,0 8 4 21 11 ESE 1017,2 20 60 0,0
20.08.2019 10:00:00 26,4 20,5 29,8 8 4 15 8 ENE 1017,2 20 60 0,0
20.08.2019 09:00:00 24,2 20,1 24,6 2 1 5 3 NNW 1017,1 20 22 0,0
20.08.2019 08:00:00 22,5 19,7 20,9 0 0 8 4 N 1016,9 20 13 0,0
20.08.2019 07:00:00 21,1 18,5 19,5 3 1 6 3 SW 1016,8 20 0 0,0
20.08.2019 06:00:00 21,2 18,2 19,7 3 1 5 3 WNW 1016,2 20 0 0,0
20.08.2019 05:00:00 21,6 18,2 20,9 3 1 8 4 E 1016,1 20 0 0,0
20.08.2019 04:00:00 22,1 18,3 21,5 4 2 8 5 SSE 1016,3 20 0 0,0
20.08.2019 03:00:00 22,5 18,3 22,2 4 2 8 5 ESE 1016,7 20 0 0,0
20.08.2019 02:00:00 22,9 18,7 22,1 4 2 5 3 WNW 1017,0 20 0 0,0

tt = Température de l'air
td = dewpoint
tt 5cm = Température de l'air 5cm
ff = Vitesse du vent
fx = gusts
dd = Direction du vent
ppp = reduced air pressure
vv = visibility
sd = Ensoleillement
rr = Quantités de précipitations

stations d'obs. à proximité